Volver al catálogo

KUIPER-00542

ActivoComunicacionesVLEO
NORAD 69611·PAYLOAD·🇺🇸 United States

Lanzado Jun 17, 2026 desde Guiana Space Centre

Loading…

Próximos Pases (próximas 24 horas)

TLE

ActualizadoSource: CelesTrak SupGP

Época: Sep 14, 2026, 18:33 UTC

1 69611C 26140V   26257.77332176 -.01098000  00000+0 -34438-1 0  2573
2 69611  51.8816 325.1889 0007864 148.4175  82.3737 15.33532658    17

Sigue KUIPER-00542 en tiempo real con AllMySat

Download on the App Store